Showing default

KUIPER-00527, 69269

Orbit data source: Space-Track

KUIPER-00527, 69269 is a payload satellite owned by Kuiper Systems (US) in LEO that was launched on Fri, 29 May 2026 UTC via an ATLAS V 551 launch vehicle from the Air Force Eastern Test Range (AFETR). Payload-class satellites include a variety of spacecraft equipped with specific instruments for various scientific and technological missions. These include communications satellites like Starlink; space stations such as the ISS; scientific satellites like the Hubble; Earth observation satellites from companies like Planet Labs, Umbra, and HawkEye 360; GPS; miniature CubeSats for education and research; and military/defense satellites.

Loading next visibility...
Identifier
69269, 2026-118C
Orbit
LEO
Country
Flag of USUS
Related business
Manufacturer
Kuiper Systems
Mission
Operational spacecraft
Bus & Motor
KUIPER, Unknown motor
Mass
~490 kg wet, ~490 kg dry
Launch date (UTC)
2026-05-29 (3 weeks ago)
Launch vehicle
ATLAS V 551
Launch site
Air Force Eastern Test Range (AFETR)
Object type
Payload
Rocket body
Debris
Shape & HBR
Unknown
Radar Cross Section
Large (>1 m²)

Expand to show TLE details & history
Last TLE update: 12 hours ago

TLE from 12 hours ago
0 KUIPER-00527
1 69269U 26118C   26171.34005183 -.00008656  00000-0 -24209-3 0  9998
2 69269  51.8622  38.2953 0009776 183.4582 176.6337 15.34705018  4469
Epoch: 2026-06-20T08:09Z
TLE epoch observation values (Epoch: 2026-06-20T08:09:40.478Z)
Latitude
-0.00003°
Longitude
7.32053°
Altitude
469.233 km
Speed
7.629 km/s
True Right ascension
02h 33m 10s
True Declination
0° 00' 00"
Sunlit
Object was in daylight at epoch
Visualization orbit readout
Latitude
Unknown
Longitude
Unknown
Altitude
Unknown
Speed
Unknown
Apparent Right ascension
Unknown
Apparent Declination
Unknown
Sunlit
N/A
Visualization observer readout
Local Sidereal Time
07:12:11
Azimuth
Unknown
Elevation
Unknown
Doppler factor
Unknown
Orbital elements
Apogee altitude
468.952 km
Perigee altitude
455.578 km
Semi-major axis
6,840.402 km
Eccentricity
0.00098
Inclination
51.8622°
RAAN
38.2953°
Arg. of periapsis
183.4582°
True anomaly
176.64027°
Mean anomaly
176.6337°
Eccentric anomaly
176.63699°
Mean motion
3.83637 °/min
Orbital period
93.84 mins
BSTAR
-0.00024209
Loading maneuver chart data...
Computing Atmospheric mass density...
Loading historical data...
Loading historical data...
Loading historical data...
Loading historical data...
Loading historical data...
Loading historical data...
Loading historical data...

Documentation

Showing up to 5 results
|